Probability
0 0 0 0 0 0 0 0 0 0 0 0 0 0 0 0 0 0 0 0 0 0 0 0 0 0 0 0 0 0 0 0 0 0 0 0 0 0
0 0 0 0 0 0 0 0 0 0 0 0 0 0 0 0 0 0 0 0 0 0 0 0 0 0 0 0 0 0 0 0 0 0 0 0 0 0
0 0 0 0 0 0 0 0 0 0 0 0 0 0 0 0 0 0 0 0 0 0 0 0 0 0 0 0 0 0 0 0 0 0 0 0 0 0
1 1 0 0 0 0 0 0 0 0 0 0 0 0 0 0 0 0 0 0 0 0 0 0 0 0 0 0 0 0 0 0 0 0 0 0 0 0
0 0 0 0 0 0 0 0 0 0 0 0 0 0 0 0 0 0 0 0 0 0 0 0 0 0 0 0 0 0 0 0 0 0 0 0 0 0
0 0 0 0 0 0 0 0 0 0 0 0 0 0 0 0 0 0 0 0 0 0 0 0 0 0 0 0 0 0 0 0 0 0 0 0 0 0
0 0 0 0 0 0 0 0 0 0 0 0 0 0 0 0 0 0 0 0 0 0 0 0 0 0 0 0 0 0 0 0 0 0 0 0 0 0
0 0 0 0 0 0 0 0 0 0 0 0 0 0 0 0 0 0 0 0 0 0 0 0 0 0 0 0 0 0 0 0 0 0 0 0 0 0
0 0 0 0 0 0 0 0 0 0 0 0 0 0 0 0 0 0 0 0 0 0 0 0 0 0 0 0 0 0 0 0 0 0 0 0 0 0
0 0 0 0 0 0 0 0 0 0 0 0 0 0 0 0 0 0 0 0 0 0 0 0 0 0 0 0 0 0 0 0 0 0 0 0 0 0
0 0 0 0 0 0 0 0 0 0 0 0 0 0 0 0 0 0 0 0 0 0 0 0 0 0 0 0 0 0 0 0 0 0 0 0 0 0
0 0 0 0 0 0 0 0 0 0 0 0 0 0 0 0 0 0 0 0 0 0 0 0 0 0 0 0 0 0 0 0 0 0 0 0 0 0
0 0 0 0 0 0 0 0 0 0 0 0 0 0 0 0 0 0 0 0 0 0 0 0 0 0 0 0 0 0 0 0 0 0 0 0 0 0
0 0 0 0 0 0 0 0 0 0 0 0 0 0 0 0 0 0 0 0 0 0 0 0 0 0 0 0 0 0 0 0 0 0 0 0 0 0
0 0 0 0 0 0 0 0 0 0 0 0 0 0 0 0 0 0 0 0 0 0 0 0 0 0 0 0 0 0 0 0 0 0 0 0 0 0
0 0 0 0 0 0 0 0 0 0 0 0 0 0 0 0 0 0 0 0 0 0 0 0 0 0 0 0 0 0 0 0 0 0 0 0 0 0
0 0 0 0 0 0 0 0 0 0 0 0 0 0 0 0 0 0 0 0 0 0 0 0 0 0 0 0 0 0 0 0 0 0 0 0 0 0
0 0 0 0 0 0 0 0 0 0 0 0 0 0 0 0 0 0 0 0 0 0 0 0 0 0 0 0 0 0 0 0 0 0 0 0 0 0
0 0 0 0 0 0 0 0 0 0 0 0 0 0 0 0 0 0 0 0 0 0 0 0 0 0 0 0 0 0 0 0 0 0 0 0 0 0
0 0 0 0 0 0 0 0 0 0 0 0 0 0 0 0 0 0 0 0 0 0 0 0 0 0 0 0 0 0 0 0 0 0 0 0 0 0
0 0 0 0 0 0 0 0 0 0 0 0 0 0 0 0 0 0 0 0 0 0 0 0 0 0 0 0 0 0 0 0 0 0 0 0 0 0
0 0 0 0 0 0 0 0 0 0 0 0 0 0 0 0 0 0 0 0 0 0 0 0 0 0 0 0 0 0 0 0 0 0 0 0 0 0
0 0 0 0 0 0 0 0 0 0 0 0 0 0 0 0 0 0 0 0 0 0 0 0 0 0 0 0 0 0 0 0 0 0 0 0 0 0
Wind_Speed
5 5 4 3 3 2 3 4 4 4 4 3 2 3 3 2 3 2 2 4 5 4 4 4 3 3 3 4 4 4 5 4 5 5 6 6 7 7
4 5 5 3 3 3 3 2 2 3 4 3 2 2 3 2 2 2 2 3 4 4 4 4 3 3 4 4 4 4 4 5 5 6 6 7 7 7
5 6 6 5 4 3 3 3 2 2 3 2 1 1 2 2 2 2 2 2 3 4 4 4 4 4 4 4 4 5 5 5 6 6 6 7 7 7
7 7 7 5 5 4 4 4 3 3 3 3 2 2 3 3 3 2 2 1 2 3 4 4 4 4 4 4 5 5 5 5 5 6 6 7 7 7
8 8 8 7 6 5 5 5 3 2 2 3 2 2 2 2 2 2 2 1 2 2 3 4 4 4 4 4 5 5 5 5 6 5 6 6 7 8
8 8 8 8 8 7 6 6 5 4 3 3 3 2 2 2 2 2 2 2 2 2 3 2 3 3 4 4 4 4 5 5 6 6 6 6 6 7
7 7 8 9 9 8 6 6 6 5 4 4 4 3 3 3 3 2 2 2 2 2 1 2 2 2 3 4 4 5 5 5 6 6 6 6 6 7
8 7 7 8 9 10 10 9 9 8 7 5 5 5 5 4 3 3 2 1 3 2 2 3 2 3 3 3 4 5 5 6 6 6 6 6 7 7
8 7 6 7 8 7 8 8 8 8 8 6 6 7 6 6 5 4 4 3 3 2 1 3 2 3 3 4 6 6 6 6 6 6 6 6 7 7
7 8 8 7 8 8 6 6 5 5 7 6 6 6 5 5 6 5 4 2 2 2 2 2 2 3 3 3 5 6 6 6 6 6 6 6 6 7
6 6 7 7 9 9 7 7 6 5 5 6 6 5 5 6 6 4 3 3 3 2 2 2 2 2 3 3 4 6 6 7 7 7 7 7 7 7
4 5 8 8 9 10 7 7 7 6 4 3 4 4 4 5 7 6 6 4 2 3 2 2 1 1 2 2 2 2 4 7 8 8 8 8 7 4
5 5 5 8 9 10 8 6 8 5 5 4 3 2 2 3 4 4 4 4 4 3 3 2 1 1 2 3 3 3 3 3 3 5 7 8 8 6
5 5 5 8 9 9 7 7 7 5 3 3 3 3 3 3 3 3 3 2 2 4 4 3 2 3 2 3 4 2 2 3 3 3 3 6 7 8
4 6 6 8 8 7 8 7 6 4 4 4 4 4 3 3 2 2 1 1 0 1 2 3 3 3 3 4 3 3 3 3 3 3 3 4 4 4
4 6 7 7 5 5 5 5 4 4 4 4 4 3 2 2 2 3 2 2 1 1 1 2 3 3 3 4 4 5 4 3 3 3 3 4 3 3
4 3 3 4 4 3 3 3 3 3 3 3 3 3 3 3 2 2 2 2 2 2 2 1 0 1 3 4 4 5 4 4 4 3 3 4 4 4
4 3 3 4 4 4 4 3 3 4 3 3 3 3 3 3 3 2 2 2 3 3 2 1 1 1 2 3 5 5 4 4 3 3 3 4 5 4
3 3 3 3 3 3 3 3 3 3 3 3 3 3 3 3 3 3 3 2 3 3 3 2 2 2 3 5 3 4 4 4 3 3 3 4 5 5
1 2 2 2 2 3 3 3 3 3 3 3 3 3 3 3 3 3 3 3 3 3 3 3 4 4 5 5 4 4 5 5 3 4 4 3 4 5
0 0 1 1 1 2 2 2 3 3 3 3 3 3 3 4 3 3 3 4 3 3 4 4 4 4 2 1 2 3 3 4 5 4 3 3 4 4
1 1 0 0 1 1 2 2 2 2 2 3 3 3 3 3 4 4 4 3 3 4 4 3 2 2 2 3 4 4 4 3 3 5 6 6 4 4
2 1 1 1 1 1 1 1 2 2 2 2 2 3 3 3 3 3 3 3 3 3 3 2 2 2 2 3 3 3 4 4 3 3 3 5 7 9
Wind_Direction
203 204 201 201 197 191 177 174 175 197 219 215 207 213 210 202 216 208 226 235 223 223 234 243 250 256 257 252 247 245 240 243 245 244 247 251 256 261
201 202 205 202 198 189 186 192 192 185 212 214 218 212 201 209 216 210 227 252 233 226 234 240 241 251 254 250 249 242 238 239 247 247 251 255 256 263
203 204 207 200 196 195 191 191 202 191 203 227 227 227 202 206 225 224 234 242 238 229 234 239 243 248 254 251 248 244 241 241 246 248 253 255 259 263
205 205 207 199 197 197 192 198 203 200 186 203 218 210 219 212 216 217 235 250 256 245 245 247 247 249 254 256 256 252 243 243 249 251 255 258 258 261
205 205 204 196 200 200 195 197 200 199 185 182 205 213 220 212 209 227 228 254 274 256 250 251 251 256 261 262 263 258 251 249 250 251 255 262 264 265
209 207 204 201 201 199 199 199 193 190 186 182 188 197 208 212 199 210 232 253 272 267 262 265 271 274 279 275 272 267 259 253 254 257 259 263 266 268
209 208 208 208 207 203 203 196 191 191 188 191 193 195 202 198 208 205 229 257 268 227 249 268 263 261 265 271 273 269 263 259 256 258 261 266 270 271
208 209 207 205 209 212 214 208 199 193 193 195 201 202 207 206 199 201 204 214 252 222 226 263 237 253 259 254 269 269 265 266 264 260 260 265 269 271
208 204 204 207 203 202 208 211 210 209 204 198 201 207 201 196 191 199 209 220 242 225 221 255 239 259 262 263 267 262 262 267 269 267 266 266 268 271
209 206 203 201 201 197 194 200 204 211 212 207 209 211 206 195 195 201 206 216 271 237 201 243 248 264 280 261 256 259 261 264 267 269 269 270 272 275
209 207 204 203 203 198 191 197 202 213 220 218 221 222 214 205 193 172 178 196 248 244 206 212 241 279 274 261 255 264 268 269 271 273 273 274 277 280
205 204 208 207 201 199 196 195 202 207 197 205 218 224 212 204 200 194 188 201 217 234 206 191 216 285 285 260 250 259 264 266 269 271 274 276 278 276
201 200 201 203 205 206 208 203 208 200 189 192 196 198 198 196 196 200 200 198 203 228 202 179 213 239 257 283 282 268 259 264 265 266 267 273 277 274
200 197 194 197 205 209 213 212 204 195 179 182 192 202 205 204 201 203 209 218 224 223 201 189 205 215 237 275 278 277 274 261 255 263 265 272 273 275
194 193 192 195 200 204 208 207 194 187 182 192 205 213 209 196 175 170 179 178 237 258 215 219 210 213 220 242 261 268 283 274 241 249 260 258 259 260
183 182 190 193 194 196 198 198 193 191 195 201 203 203 186 177 184 187 198 199 214 269 269 240 222 213 237 246 247 261 259 256 259 258 261 264 261 253
155 152 165 174 181 186 190 187 186 187 197 193 183 193 196 192 199 188 189 200 213 231 257 271 288 273 258 248 252 251 256 262 260 256 263 273 267 251
150 163 184 191 194 195 193 192 194 196 197 195 193 196 199 200 202 199 203 205 218 228 230 227 213 313 306 278 242 245 251 258 265 258 255 268 275 266
157 175 190 193 195 193 193 195 200 198 193 194 200 199 195 199 201 206 208 214 226 226 224 212 212 219 257 276 269 228 242 261 266 268 256 256 268 275
172 182 193 196 193 192 193 192 190 192 201 198 195 197 193 195 202 209 212 217 226 228 232 227 220 219 228 247 263 269 249 243 244 260 275 280 279 284
47 179 187 184 187 193 198 198 199 204 202 196 196 198 199 196 204 210 216 228 231 228 232 241 241 241 241 241 268 274 269 261 256 252 259 280 289 289
7 359 336 233 205 203 201 198 202 204 199 200 202 203 206 202 205 211 214 219 229 234 244 255 242 225 219 229 249 265 282 291 284 280 271 259 254 258
352 354 345 322 284 244 204 197 201 210 208 205 206 206 205 208 209 211 216 220 225 231 233 242 248 243 240 233 244 258 267 282 293 300 291 291 285 280